Change the Weather History Date:

Wednesday, July 24, 2013

  Actual Average Record
Temperature  
Mean Temperature 73 °F 71 °F  
Max Temperature 93 °F 90 °F 100 °F (2003)
Min Temperature 52 °F 53 °F 44 °F (1970)
Degree Days  
Heating Degree Days 0 0  
Month to date heating degree days 0 17  
Since 1 June heating degree days 90 148  
Since 1 July heating degree days 0 17  
Cooling Degree Days 8 6  
Month to date cooling degree days 234 124  
Year to date cooling degree days 336 175  
Since 1 June cooling degree days 327 170  
Growing Degree Days 22 (Base 50)    
Moisture  
Dew Point 31 °F    
Average Humidity 28    
Maximum Humidity 50    
Minimum Humidity 6    
Precipitation  
Precipitation 0.00 in 0.02 in 0.36 in (1982)
Month to date precipitation 0.27 0.49  
Year to date precipitation 3.82 7.31  
Snow  
Snow 0.00 in - - ()
Month to date snowfall 0.0  
Since 1 June snowfall 0.0  
Since 1 July snowfall 0.0  
Snow Depth 0.00 in    
Sea Level Pressure  
Sea Level Pressure 29.93 in    
Wind  
Wind Speed 6 mph (WSW)    
Max Wind Speed 14 mph    
Max Gust Speed 18 mph    
Visibility 10 miles    
Events      
T = Trace of Precipitation, MM = Missing Value Source: NWS Daily Summary

Daily Weather History Graph

Daily Weather History Graph

Search for Another Location

Airport or City:

Trip Planner

Search our weather history database for the weather conditions in past years. The results will help you decide how hot, cold, wet, or windy it might be!

Date:

Astronomy

Jul. 24, 2013 Rise Set
Actual Time 6:13 AM MDT 8:59 PM MDT
Civil Twilight 5:40 AM MDT 9:32 PM MDT
Nautical Twilight 4:58 AM MDT 10:13 PM MDT
Astronomical Twilight 4:10 AM MDT 11:01 PM MDT
Moon 10:01 PM MDT (7/24) 8:43 AM MDT (7/24)
Length of Visible Light 15h 51m
Length of Day
14h 45m
Waning Gibbous, 94% of the Moon is Illuminated
Jul 24
Waning Gibbous
Jul 29
Last Quarter
Aug 6
New
Aug 14
First Quarter
Aug 20
Full

Hourly Weather History & Observations

Time (MDT) Temp. Dew Point Humidity Pressure Visibility Wind Dir Wind Speed Gust Speed Precip Events Conditions
12:53 AM 61.0 °F 30.0 °F 31% 29.94 in 8.0 mi Calm Calm - N/A   Clear
1:53 AM 57.9 °F 30.0 °F 35% 29.94 in 10.0 mi South 3.5 mph - N/A   Clear
2:53 AM 60.1 °F 34.0 °F 38% 29.92 in 10.0 mi East 4.6 mph - N/A   Clear
3:53 AM 55.0 °F 35.1 °F 47% 29.94 in 10.0 mi North 4.6 mph - N/A   Clear
4:53 AM 57.0 °F 32.0 °F 39% 29.94 in 10.0 mi SSW 4.6 mph - N/A   Clear
5:53 AM 54.0 °F 36.0 °F 51% 29.94 in 10.0 mi ESE 3.5 mph - N/A   Clear
6:53 AM 55.9 °F 34.0 °F 44% 29.97 in 10.0 mi SW 8.1 mph - N/A   Clear
7:53 AM 59.0 °F 39.0 °F 48% 29.97 in 10.0 mi Calm Calm - N/A   Clear
8:53 AM 66.9 °F 36.0 °F 32% 29.97 in 10.0 mi North 3.5 mph - N/A   Clear
9:53 AM 73.0 °F 34.0 °F 24% 29.97 in 10.0 mi Calm Calm - N/A   Clear
10:53 AM 81.0 °F 30.9 °F 16% 29.97 in 10.0 mi WNW 6.9 mph - N/A   Clear
11:53 AM 82.0 °F 24.1 °F 12% 29.97 in 10.0 mi WNW 9.2 mph - N/A   Clear
12:53 PM 84.0 °F 28.9 °F 14% 29.96 in 10.0 mi Variable 6.9 mph - 0.00 in   Clear
1:53 PM 90.0 °F 27.0 °F 10% 29.94 in 10.0 mi Calm Calm - N/A   Clear
2:53 PM 90.0 °F 19.0 °F 7% 29.92 in 10.0 mi Variable 5.8 mph - N/A   Clear
3:53 PM 91.0 °F 16.0 °F 6% 29.91 in 10.0 mi West 6.9 mph - N/A   Clear
4:53 PM 90.0 °F 23.0 °F 9% 29.90 in 10.0 mi NW 5.8 mph - N/A   Clear
5:53 PM 90.0 °F 26.1 °F 10% 29.90 in 10.0 mi West 8.1 mph - N/A   Clear
6:53 PM 90.0 °F 30.0 °F 12% 29.88 in 10.0 mi WSW 9.2 mph - N/A   Clear
7:53 PM 84.9 °F 37.9 °F 19% 29.88 in 10.0 mi SW 9.2 mph - N/A   Clear
8:53 PM 82.0 °F 33.1 °F 17% 29.88 in 10.0 mi SW 13.8 mph - N/A   Clear
9:53 PM 75.0 °F 35.1 °F 23% 29.90 in 10.0 mi South 10.4 mph - N/A   Clear
10:53 PM 73.0 °F 35.1 °F 25% 29.88 in 10.0 mi South 9.2 mph - N/A   Clear
11:53 PM 73.9 °F 37.9 °F 27% 29.88 in 10.0 mi SSW 10.4 mph - N/A   Clear